Wind_Speed
32 37 33 27 33 32 28 33 34 34 27 27 28 31 34 27 27 22 18 17 17 17 17 20 18 17 18 19 19 21 21 20 20 20 19 21 21 18 15 17 17 18 20
16 20 27 23 24 29 30 32 34 34 33 30 27 34 37 32 29 25 20 19 18 19 17 17 19 19 17 19 21 23 23 23 23 23 22 23 17 17 16 18 18 21 23
16 21 25 27 23 30 27 28 31 33 33 32 29 31 38 34 32 29 27 24 21 23 23 21 22 22 22 21 23 25 26 25 24 24 22 22 21 18 21 19 21 21 24
18 18 22 22 28 27 32 31 28 28 35 34 29 30 34 36 35 33 31 29 29 26 26 26 25 24 24 23 25 26 27 26 26 26 23 20 19 22 22 22 21 22 24
20 24 27 28 28 29 30 31 34 33 34 27 22 26 34 37 37 36 36 34 33 29 26 25 27 26 26 26 27 28 28 28 27 26 24 20 24 26 24 23 23 24 26
25 26 28 30 29 32 31 36 36 38 38 34 27 30 34 37 38 43 41 39 40 34 32 30 30 27 26 28 28 30 28 27 28 28 25 24 26 26 25 25 26 27 29
26 26 27 27 26 29 29 33 36 39 39 36 32 39 38 40 32 35 47 45 42 39 34 33 30 26 26 27 28 28 29 31 29 29 24 25 25 26 27 28 26 28 28
22 27 28 28 24 22 25 32 33 40 36 39 39 30 30 32 31 29 28 41 31 29 32 35 29 26 24 25 26 27 29 29 31 30 25 27 27 28 29 28 28 29 27
19 21 22 25 28 22 23 24 36 38 39 43 39 34 36 28 32 31 26 25 29 31 35 31 28 25 24 24 26 28 31 34 31 24 28 32 31 30 31 31 30 27 32
16 19 23 26 19 20 20 30 35 35 34 31 35 37 36 33 32 27 25 24 24 28 28 25 26 26 24 25 28 28 31 24 26 30 32 32 32 32 32 33 33 30 36
13 16 22 24 30 34 27 32 35 30 34 35 37 40 39 34 28 24 23 24 25 25 24 25 26 25 23 25 23 24 26 27 30 32 32 30 33 35 35 38 38 40 40
10 11 11 14 24 26 27 31 29 26 26 29 27 25 24 21 21 25 25 26 26 24 23 22 23 24 23 23 24 26 27 26 28 32 33 34 37 37 39 39 39 42 43
9 5 11 11 10 13 15 17 17 17 18 22 23 24 22 23 25 27 28 29 26 28 23 23 23 24 25 27 27 28 28 28 30 35 36 37 38 41 42 42 45 43 39
5 10 11 11 9 14 15 18 19 21 21 24 25 26 27 26 27 29 29 28 26 27 27 26 23 23 26 30 32 31 31 32 34 37 38 39 42 44 45 45 44 41 42
1 3 6 7 9 10 12 17 22 22 25 26 27 27 27 27 29 30 30 26 26 26 24 26 25 25 30 32 29 31 34 38 39 41 43 45 48 48 44 45 47 45 45
3 5 6 7 8 10 10 11 13 16 15 17 21 24 27 29 30 31 30 30 31 31 29 30 30 32 36 35 34 36 36 37 40 43 46 46 47 44 45 48 46 44 45
7 8 9 10 11 12 12 12 15 17 18 18 20 21 24 29 31 31 31 33 34 35 36 32 34 36 39 39 40 39 41 41 40 44 46 45 43 40 40 45 50 53 54
10 11 12 16 15 15 14 15 15 17 19 21 22 23 22 27 31 31 33 34 36 38 42 41 41 41 42 42 45 48 50 48 47 47 48 43 39 39 42 46 51 50 50
16 14 15 16 17 18 17 18 18 18 18 21 24 24 25 29 29 31 34 36 39 42 45 46 43 45 45 49 51 53 53 51 45 45 44 45 43 42 47 49 50 54 52
18 19 18 19 17 17 19 20 21 21 20 20 23 26 29 30 30 35 39 41 42 45 46 48 49 47 47 45 45 45 49 46 45 49 46 48 46 47 50 51 59 55 50
25 24 22 22 24 23 22 24 25 27 28 29 30 29 31 33 34 35 37 36 38 42 49 52 51 51 50 45 47 47 46 45 47 50 48 48 48 46 50 54 54 58 55
30 30 28 27 28 29 27 29 30 31 32 31 30 31 33 37 38 39 41 41 42 45 44 47 48 47 48 48 47 49 48 50 51 50 49 53 51 50 58 59 58 62 68
35 34 34 34 32 33 33 34 34 35 36 35 34 34 34 35 38 41 42 46 49 48 47 47 49 49 50 49 50 51 54 53 55 56 54 56 55 56 58 59 67 64 66
39 39 39 37 37 36 36 38 40 42 42 39 39 38 38 37 38 39 44 47 50 51 51 50 50 52 52 53 56 54 58 57 57 59 59 61 61 67 65 64 64 70 73
41 42 41 42 42 41 41 43 46 46 47 45 45 46 43 39 39 42 46 47 47 49 50 52 54 55 56 53 64 58 58 59 60 59 67 69 61 63 69 71 68 68 76
47 47 49 46 46 47 47 46 47 49 48 48 47 46 48 53 50 46 46 47 48 49 52 55 57 58 59 57 56 57 60 56 58 63 64 68 71 70 73 72 74 81 82
Wind_Direction
197 206 203 215 223 230 235 231 229 228 234 222 228 235 237 231 232 242 243 245 261 263 266 269 274 266 259 256 253 243 241 241 239 241 253 255 257 255 266 270 270 280 283
219 215 217 223 223 223 230 227 228 229 231 230 231 236 237 238 235 240 249 251 255 258 256 264 267 260 264 255 255 246 242 237 236 245 249 254 251 267 269 277 278 284 288
248 235 214 211 231 225 224 232 233 237 235 234 239 246 247 243 237 243 245 246 246 251 254 260 268 260 259 250 246 241 239 237 243 246 247 251 260 262 266 272 277 284 289
237 245 242 245 247 237 228 232 233 237 240 240 243 249 251 243 237 242 245 250 250 253 257 262 265 264 261 251 244 240 236 237 245 244 246 248 251 251 264 269 278 290 297
243 239 232 235 246 248 237 241 241 227 233 231 229 244 248 248 249 244 245 249 254 256 258 261 265 258 258 252 245 238 236 243 247 241 240 253 250 258 267 278 285 294 298
246 250 246 242 241 244 245 250 241 228 236 235 236 244 252 259 260 253 250 251 252 253 255 259 266 256 255 250 245 244 239 240 247 241 243 246 248 263 273 279 285 295 294
254 252 247 250 246 244 245 233 236 224 235 242 243 244 259 259 276 287 251 255 257 252 257 260 257 249 250 246 241 240 239 249 246 241 236 257 264 268 273 279 289 292 293
252 249 241 238 236 238 239 232 234 225 232 237 242 255 254 265 271 268 264 263 256 256 254 253 243 244 246 243 241 242 247 246 252 238 250 260 265 269 276 278 284 290 292
266 251 235 235 236 222 238 235 229 229 239 244 254 249 254 256 251 261 257 253 246 246 247 241 241 238 236 236 241 243 245 247 252 240 256 260 264 268 274 276 280 289 295
283 231 225 219 225 218 225 236 228 242 240 248 247 254 255 249 252 245 244 241 243 243 241 240 240 233 232 239 240 246 252 255 244 253 261 264 269 275 279 277 276 284 292
259 240 222 210 233 237 248 236 239 241 248 244 249 251 250 249 241 237 235 233 235 232 234 239 239 233 235 243 245 246 251 253 256 260 263 268 274 270 274 282 282 284 284
240 204 176 195 216 230 239 247 250 238 232 235 229 229 227 228 228 226 227 231 226 231 229 223 228 233 236 240 246 253 258 262 267 268 267 271 270 274 278 284 287 284 281
216 232 209 193 189 189 203 211 223 223 222 224 225 226 221 221 223 225 225 232 233 238 234 231 233 239 248 245 254 255 258 263 267 274 275 275 276 277 279 279 284 282 279
214 236 241 253 257 245 243 242 243 243 238 235 229 233 224 223 229 228 226 230 238 244 241 238 246 253 256 254 256 256 259 265 269 271 272 274 276 278 280 282 284 278 281
9 221 250 260 267 265 259 254 255 260 258 251 241 243 245 241 241 238 230 232 236 239 232 236 245 258 264 260 263 267 272 276 274 275 276 282 287 282 279 281 280 278 282
261 269 252 243 247 251 251 250 249 251 250 247 248 249 249 245 236 233 234 236 237 237 237 245 247 250 259 261 266 270 275 281 284 282 284 286 289 282 282 278 275 283 294
228 231 246 258 255 251 242 250 254 259 256 248 249 249 245 241 239 240 246 243 246 248 248 242 256 261 260 260 261 269 277 284 282 286 284 287 284 277 277 273 278 285 288
250 251 251 245 242 246 246 246 253 255 253 253 252 250 247 244 244 245 248 252 252 252 256 254 256 260 260 263 266 268 275 282 280 286 284 285 282 273 276 275 282 287 294
252 256 260 260 256 254 249 248 245 248 250 252 257 257 251 250 251 254 255 255 256 255 256 261 261 263 265 266 268 272 278 281 272 277 282 281 286 282 291 279 289 301 294
253 256 262 262 258 252 251 252 252 252 252 257 260 258 257 257 253 252 252 252 253 255 257 259 263 267 271 273 273 273 272 275 270 275 284 287 287 279 288 285 298 289 291
256 257 256 255 256 257 257 255 255 254 256 260 266 272 273 269 265 263 263 262 260 262 260 260 263 267 274 273 277 280 284 280 278 282 285 285 282 281 279 285 296 285 284
255 259 260 263 258 257 256 258 265 267 267 270 273 270 269 265 263 265 268 268 266 265 270 264 267 273 277 277 277 281 284 285 283 281 281 285 280 280 278 289 285 278 283
260 260 260 262 259 256 258 258 264 267 269 271 276 277 274 267 266 264 264 265 266 268 268 269 272 274 275 278 278 280 281 281 281 283 284 284 286 280 288 288 284 279 288
265 265 265 263 259 257 258 258 263 268 270 274 277 277 279 273 266 266 264 263 265 266 268 268 269 270 272 277 278 274 277 279 280 280 278 283 282 277 284 288 288 287 290
262 265 264 262 262 259 257 257 260 264 268 270 273 275 276 275 268 263 265 268 269 270 270 269 271 272 272 271 279 282 283 282 280 278 276 281 284 283 283 287 286 285 290
263 262 261 260 265 263 258 261 263 265 267 272 272 270 277 281 275 270 269 268 270 273 275 275 274 273 273 274 274 277 277 285 279 282 284 281 284 285 281 285 283 288 291
Height
5748 5751 5754 5759 5763 5766 5770 5773 5778 5781 5783 5792 5796 5796 5799 5803 5806 5809 5810 5812 5814 5816 5817 5817 5817 5816 5816 5816 5815 5816 5816 5817 5817 5818 5818 5819 5819 5818 5818 5818 5819 5819 5818
5745 5749 5753 5757 5758 5762 5765 5769 5774 5777 5778 5785 5790 5791 5794 5798 5802 5805 5806 5808 5809 5811 5812 5812 5812 5812 5811 5810 5811 5812 5812 5813 5813 5813 5813 5814 5814 5815 5815 5816 5815 5815 5814
5744 5747 5751 5754 5756 5760 5763 5765 5767 5772 5772 5780 5785 5786 5789 5793 5796 5799 5801 5802 5803 5805 5806 5806 5807 5807 5806 5804 5805 5806 5807 5808 5808 5809 5809 5810 5810 5811 5812 5811 5811 5809 5808
5741 5744 5746 5750 5752 5756 5759 5761 5764 5768 5768 5776 5779 5781 5783 5787 5789 5792 5795 5797 5798 5798 5799 5800 5801 5801 5800 5799 5798 5800 5802 5803 5804 5804 5805 5805 5807 5808 5807 5805 5804 5803 5803
5736 5739 5741 5744 5746 5751 5754 5756 5760 5763 5763 5770 5773 5776 5777 5780 5783 5784 5787 5789 5791 5791 5792 5793 5794 5794 5794 5794 5795 5796 5797 5798 5799 5800 5800 5801 5802 5802 5801 5801 5800 5798 5797
5729 5733 5735 5736 5739 5742 5746 5750 5754 5757 5758 5763 5767 5770 5772 5773 5776 5777 5778 5781 5782 5784 5785 5786 5786 5787 5787 5788 5790 5791 5792 5793 5793 5794 5794 5795 5796 5796 5796 5795 5794 5793 5791
5721 5722 5729 5729 5732 5735 5738 5742 5745 5751 5752 5756 5763 5764 5765 5764 5768 5766 5768 5772 5775 5777 5779 5779 5779 5780 5781 5782 5783 5785 5786 5787 5788 5788 5789 5789 5789 5790 5789 5788 5787 5786 5783
5717 5719 5721 5724 5726 5728 5731 5735 5739 5745 5747 5750 5754 5757 5757 5758 5758 5759 5761 5765 5767 5770 5771 5771 5772 5773 5774 5776 5777 5779 5780 5780 5780 5781 5782 5782 5782 5782 5782 5780 5779 5777 5774
5711 5711 5714 5717 5721 5722 5726 5730 5735 5739 5742 5744 5746 5749 5749 5752 5750 5752 5755 5756 5758 5761 5762 5763 5764 5765 5767 5769 5772 5772 5775 5774 5774 5776 5777 5776 5775 5774 5774 5773 5771 5769 5767
5703 5704 5707 5711 5714 5718 5721 5726 5730 5733 5734 5737 5738 5739 5740 5743 5744 5748 5748 5749 5751 5754 5756 5757 5757 5759 5761 5763 5766 5766 5766 5767 5768 5770 5770 5769 5768 5767 5767 5766 5763 5761 5758
5699 5700 5702 5705 5709 5713 5717 5720 5722 5724 5727 5729 5731 5731 5733 5735 5737 5740 5743 5744 5746 5747 5748 5750 5751 5753 5754 5756 5758 5760 5760 5761 5761 5761 5761 5760 5760 5760 5759 5758 5756 5753 5750
5699 5699 5700 5702 5705 5709 5712 5714 5716 5717 5720 5722 5724 5726 5727 5728 5731 5734 5736 5738 5740 5742 5744 5745 5746 5747 5749 5751 5753 5753 5753 5753 5753 5753 5752 5751 5751 5750 5749 5747 5744 5742 5739
5697 5699 5701 5702 5704 5706 5709 5712 5714 5715 5716 5718 5720 5720 5721 5725 5726 5729 5730 5733 5735 5736 5739 5741 5741 5743 5744 5746 5746 5746 5746 5746 5745 5745 5743 5743 5741 5740 5738 5736 5733 5731 5729
5696 5699 5701 5702 5703 5705 5707 5708 5709 5711 5712 5714 5715 5717 5717 5720 5722 5724 5725 5726 5728 5729 5731 5734 5735 5736 5736 5737 5737 5738 5739 5740 5738 5736 5734 5733 5731 5728 5726 5724 5723 5721 5719
5696 5697 5697 5698 5699 5700 5703 5705 5706 5707 5709 5709 5712 5713 5715 5717 5718 5719 5720 5721 5722 5723 5725 5727 5728 5729 5729 5727 5728 5728 5728 5728 5726 5725 5723 5720 5718 5716 5714 5712 5711 5710 5708
5697 5698 5698 5697 5698 5699 5700 5701 5703 5704 5704 5705 5706 5707 5708 5711 5711 5712 5713 5714 5715 5716 5718 5720 5721 5722 5720 5719 5719 5718 5718 5716 5715 5713 5711 5708 5705 5703 5702 5702 5700 5698 5696
5694 5695 5695 5696 5697 5697 5697 5699 5700 5700 5701 5701 5702 5702 5704 5704 5705 5706 5706 5708 5709 5709 5709 5714 5713 5713 5712 5710 5710 5708 5707 5706 5704 5703 5700 5697 5695 5693 5692 5691 5689 5686 5682
5691 5692 5692 5692 5692 5692 5693 5694 5695 5696 5697 5698 5698 5698 5699 5697 5698 5698 5699 5701 5702 5702 5700 5703 5703 5704 5702 5701 5700 5698 5696 5695 5693 5691 5688 5687 5685 5683 5682 5679 5676 5673 5669
5689 5688 5688 5688 5688 5689 5689 5689 5689 5689 5690 5691 5691 5691 5691 5690 5691 5692 5692 5693 5694 5693 5691 5688 5692 5691 5691 5690 5688 5686 5684 5683 5681 5679 5677 5675 5673 5671 5668 5665 5662 5657 5653
5683 5683 5683 5683 5683 5684 5685 5684 5684 5684 5684 5684 5684 5684 5684 5683 5684 5684 5683 5683 5682 5681 5680 5679 5678 5679 5678 5678 5675 5675 5673 5670 5669 5667 5665 5662 5660 5657 5654 5650 5646 5642 5638
5676 5676 5676 5676 5676 5677 5678 5678 5677 5677 5677 5677 5677 5677 5677 5676 5675 5675 5674 5674 5671 5669 5669 5668 5668 5668 5666 5666 5665 5662 5661 5658 5657 5655 5654 5652 5647 5644 5641 5637 5632 5629 5625
5669 5668 5669 5669 5669 5669 5670 5669 5668 5668 5667 5666 5666 5665 5665 5663 5665 5664 5662 5661 5658 5657 5656 5655 5656 5656 5655 5653 5653 5649 5647 5645 5643 5643 5639 5636 5633 5629 5624 5621 5618 5613 5608
5659 5661 5661 5661 5661 5662 5662 5660 5659 5656 5655 5656 5655 5654 5653 5652 5651 5650 5650 5647 5644 5644 5644 5643 5642 5642 5640 5640 5638 5636 5633 5630 5627 5624 5622 5619 5616 5612 5608 5605 5600 5596 5591
5649 5650 5651 5651 5651 5653 5652 5651 5649 5646 5645 5646 5645 5643 5641 5641 5639 5638 5635 5633 5631 5631 5630 5629 5627 5626 5625 5624 5623 5623 5619 5614 5611 5608 5605 5601 5599 5595 5590 5587 5581 5577 5573
5638 5639 5638 5638 5638 5640 5640 5639 5637 5635 5634 5634 5633 5631 5630 5629 5628 5626 5621 5619 5618 5615 5615 5614 5613 5611 5611 5607 5609 5606 5602 5598 5593 5592 5588 5584 5581 5577 5573 5567 5562 5557 5553
5625 5624 5624 5623 5625 5626 5625 5625 5624 5622 5621 5621 5619 5619 5618 5616 5614 5612 5609 5606 5604 5603 5601 5599 5598 5595 5594 5593 5590 5586 5582 5577 5573 5572 5569 5566 5562 5557 5553 5548 5543 5537 5531